Terminal Aerodrome Forecast
Issued by NWS Pittsburgh, PA

Current Version | Previous Version | Graphics & Text | Print | Product List | Glossary On
Versions: 1 2 3 4 5 6 7 8 9 10 11 12 13 14 15 16 17 18 19 20 21 22 23 24 25 26 27 28 29 30 31 32 33
000
FTUS41 KPBZ 060857 AAB
TAFPIT
TAF AMD
KPIT 060857Z 0609/0712 00000KT 4SM BR BKN080
      TEMPO 0609/0612 1/4SM FG VV001
     FM061200 VRB04KT 5SM BR SKC
     FM061300 VRB03KT P6SM BKN080=

USA.gov is the U.S. government's official web portal to all federal, state and local government web resources and services.